Weather in Inokovka Vtoraya

Russia / Tambov Oblast     52°32′59″N   42°31′11″E
temp.,
°C
wind,
m/s
gust,
m/s
humid.,
%
clouds,
%
prec.,
mm/h
press.,
hPa
HPBL,
m
27 february, sat
sat2700:00+2w61390100 0.0 1005391
03:000w6149398 0.0 1006436
06:00+1w61394100 0.0 1004702
09:00+1w71398100 0.1 1003752
12:00+1w7149498 0.1 1003703
15:00−3nw9138585 0.7 1004922
18:00−7nnw6128999 0.1 1007685
21:00−8nnw5119297 0.1 1010574
28 february, sun
sun2800:00−10nnw4109398 0.0 1012370
03:00−12nw379675 0.0 1013185
06:00−13nw369512 0.0 1014149
09:00−11nw479336 0.0 1015295
12:00−8nw369092 0.0 1015468
15:00−6nnw258996 0.1 1015552
18:00−7nnw2395100 0.1 101662
21:00−10nnw349597 0.1 101982
1 march, mon
mon100:00−12nne239682 0.0 102042
03:00−13n229550 0.0 102220
06:00−14n23944 0.0 102324
09:00−12n22922 0.0 1025119
12:00−9nw238740 0.0 1026304
15:00−7w238961 0.0 1026325
18:00−9wsw349589 0.0 102558
21:00−9wsw479665 0.0 1024126
2 march, tue
tue200:00−7wsw5129492 0.0 1022286
03:00−5wsw7139496 0.1 1018430
06:00−3wsw71595100 0.3 1014573
09:00−1wsw81596100 1.9 1010801
12:00+1w81398100 1.4 1008735
15:000nw71298100 1.8 1007800
18:00−1nw6148887 0.1 1008534
21:00−3nw6139172 0.2 1010475
3 march, wed
wed300:00−3wnw6139486 0.0 1010453
03:00−3nw5119384 0.1 1010513
06:00−4nw6119294 0.1 1010601
09:00−4nw7128997 0.1 1012880
12:00−3nnw71186100 0.1 10131122
15:00−3nnw81283100 0.3 10151149
18:00−5nw6148597 0.1 1016559
21:00−6nw5119149 0.1 1018267